Location: 10033 Water Well
(34.0865°N, 106.8959°W)
Time: 15:38:43
(UTC+00:00)

Cosmos 1515 Rocket - Pass Details

Date: 13 January 2026
Orbit: 599 x 623 km, 82.5° (Epoch: 11 February)

Event Time Altitude Azimuth Distance (km) Brightness Sun altitude
Rises 01:20:07 0° 186° (S) 2,868 7.3 -12.6°
Reaches altitude 10° 01:22:19 10° 186° (S) 1,971 6.5 -13.1°
Maximum altitude 01:26:41 87° 276° (W) 625 3.6 -13.9°
Drops below altitude 10° 01:31:07 10° 6° (N) 1,995 5.9 -14.8°
Sets 01:33:21 0° 7° (N) 2,907 6.8 -15.3°
